Ann Arbor, MI

6:07 PM EDT on June 23, 2017 (GMT -0400)
Ann Arbor Municipal

Weather History for KARB - January, 2012

Change the Weather History Date:

Saturday, January 7, 2012

  Actual Average Record
Temperature  
Mean Temperature 38 °F -  
Max Temperature 43 °F 31 °F 63 °F (2008)
Min Temperature 32 °F 16 °F -15 °F (2014)
Degree Days  
Heating Degree Days 28    
Moisture  
Dew Point 29 °F    
Average Humidity 72    
Maximum Humidity 100    
Minimum Humidity 58    
Precipitation  
Precipitation 0.00 in - - ()
Sea Level Pressure  
Sea Level Pressure 29.96 in    
Wind  
Wind Speed 8 mph (WNW)    
Max Wind Speed 16 mph    
Max Gust Speed 24 mph    
Visibility 10 miles    
Events      
Averages and records for this station are not official NWS values.
T = Trace of Precipitation, MM = Missing Value Source: NWS Daily Summary

Daily Weather History Graph

Daily Weather History Graph

Search for Another Location

Airport or City:

Trip Planner

Search our weather history database for the weather conditions in past years. The results will help you decide how hot, cold, wet, or windy it might be!

Date:

Astronomy

Jan. 07, 2012 Rise Set
Actual Time 8:03 AM EST 5:18 PM EST
Civil Twilight 7:32 AM EST 5:50 PM EST
Nautical Twilight 6:57 AM EST 6:25 PM EST
Astronomical Twilight 6:23 AM EST 6:59 PM EST
Moon 4:01 PM EST (1/7) 6:34 AM EST (1/7)
Length of Visible Light 10h 18m
Length of Day
9h 15m
Waxing Gibbous, 97% of the Moon is Illuminated
Jan 7
Waxing Gibbous
Jan 9
Full
Jan 16
Last Quarter
Jan 23
New
Jan 30
First Quarter

Hourly Weather History & Observations

Time (EST) Temp. Windchill Dew Point Humidity Pressure Visibility Wind Dir Wind Speed Gust Speed Precip Events Conditions
12:53 AM 33.1 °F 30.0 °F 32.0 °F 96% 29.68 in 10.0 mi SW 3.5 mph - N/A   Clear
1:53 AM 32.0 °F 27.5 °F 32.0 °F 100% 29.68 in 10.0 mi SSW 4.6 mph - N/A   Clear
2:53 AM 33.1 °F 30.0 °F 33.1 °F 100% 29.69 in 10.0 mi West 3.5 mph - N/A   Clear
3:53 AM 41.0 °F 37.1 °F 33.1 °F 73% 29.70 in 10.0 mi NW 5.8 mph - N/A   Mostly Cloudy
4:53 AM 41.0 °F 36.4 °F 32.0 °F 70% 29.72 in 10.0 mi WNW 6.9 mph 18.4 mph N/A   Overcast
7:53 AM 36.0 °F 28.0 °F 30.9 °F 82% 29.81 in 10.0 mi WNW 11.5 mph - N/A   Clear
8:53 AM 37.0 °F 28.9 °F 30.9 °F 79% 29.85 in 10.0 mi West 12.7 mph - N/A   Clear
9:53 AM 39.9 °F 32.9 °F 32.0 °F 73% 29.88 in 10.0 mi WNW 11.5 mph - N/A   Clear
10:53 AM 42.1 °F 34.9 °F 30.9 °F 65% 29.91 in 10.0 mi NW 13.8 mph 21.9 mph N/A   Clear
11:53 AM 43.0 °F 35.7 °F 30.9 °F 62% 29.92 in 10.0 mi WNW 15.0 mph 20.7 mph N/A   Clear
12:53 PM 42.1 °F 34.2 °F 28.9 °F 60% 29.94 in 10.0 mi WNW 16.1 mph 24.2 mph N/A   Mostly Cloudy
1:53 PM 42.1 °F 35.2 °F 28.0 °F 58% 29.95 in 10.0 mi WNW 12.7 mph 21.9 mph N/A   Mostly Cloudy
3:53 PM 42.1 °F 36.6 °F 28.9 °F 60% 30.01 in 10.0 mi WNW 9.2 mph 18.4 mph N/A   Overcast
4:53 PM 39.9 °F 32.9 °F 28.9 °F 65% 30.04 in 10.0 mi West 11.5 mph - N/A   Overcast
5:53 PM 39.0 °F 32.3 °F 28.9 °F 67% 30.06 in 10.0 mi West 10.4 mph - N/A   Overcast
6:53 PM 37.9 °F 30.5 °F 28.0 °F 68% 30.09 in 10.0 mi WNW 11.5 mph 18.4 mph N/A   Overcast
7:53 PM 36.0 °F 29.0 °F 26.1 °F 67% 30.11 in 10.0 mi WNW 9.2 mph - N/A   Mostly Cloudy
9:53 PM 36.0 °F 29.6 °F 26.1 °F 67% 30.16 in 10.0 mi WNW 8.1 mph - N/A   Overcast
10:02 PM 35.6 °F 29.2 °F 26.6 °F 70% 30.13 in 10.0 mi WNW 8.1 mph - N/A   Overcast
10:22 PM 35.6 °F 29.2 °F 26.6 °F 70% 30.14 in 10.0 mi WNW 8.1 mph - N/A   Overcast
10:53 PM 35.1 °F 30.1 °F 27.0 °F 72% 30.17 in 10.0 mi North 5.8 mph - N/A   Overcast
11:30 PM 35.6 °F 29.9 °F 26.6 °F 70% 30.16 in 10.0 mi North 6.9 mph - N/A   Overcast
11:53 PM 35.1 °F 31.0 °F 26.1 °F 70% 30.19 in 10.0 mi NNW 4.6 mph - N/A   Overcast